Location: Napa Soda Springs
(38.3907°N, 122.2794°W)
Time: 07:29:00
(UTC+00:00)

Uosat 12 SS-18 rocket - Pass Details

Date: 29 October 2020
Orbit: 600 x 1384 km, 64.6° (Epoch: 02 December)

Event Time Altitude Azimuth Distance (km) Brightness Sun altitude
Rises 13:24:18 0° 205° (SSW) 3,238 7.6 -14.0°
Reaches altitude 10° 13:26:51 10° 204° (SSW) 2,213 6.7 -13.5°
Maximum altitude 13:31:45 75° 119° (ESE) 678 4.4 -12.5°
Drops below altitude 10° 13:36:07 10° 35° (NE) 1,973 7.0 -11.7°
Sets 13:38:17 0° 34° (NNE) 2,859 7.8 -11.3°
